Simultaneous Nadir Overpasses (SNOs) Predictions

Prediction of SNOs between AQUA and NPP Satellite Orbit:

Table of predicted SNOs for the next 14.0 days since TLE Epoch: 8/11/2017
Index Date (AQUA) Time (AQUA) Lat,Lon (AQUA) SZA (AQUA ) Date (NPP) Time (NPP) Lat,Lon (NPP) SZA (NPP ) Distance(km) Time Diff (sec)
1 08/12/2017 14:05:08 -75.18, 25.37 96.06 08/12/2017 14:04:59 -75.18, 25.36 96.05 0.18 9
2 08/12/2017 14:54:11 76.28,-163.74 82.68 08/12/2017 14:55:19 76.28,-163.73 82.62 0.44 68
3 08/15/2017 05:32:25 74.37, -28.44 85.63 08/15/2017 05:31:27 74.37, -28.41 85.67 0.96 58
4 08/15/2017 06:21:27 -75.67, 142.62 95.84 08/15/2017 06:21:46 -75.67, 142.64 95.86 0.81 19
5 08/17/2017 21:48:43 74.92, 88.81 85.81 08/17/2017 21:48:13 74.93, 88.86 85.82 1.72 30
6 08/17/2017 22:37:46 -76.14,-100.06 95.59 08/17/2017 22:38:33 -76.15, -99.98 95.65 2.19 47
7 08/20/2017 13:19:12 -63.61, 20.82 81.65 08/20/2017 13:17:59 -63.73, 19.88 81.40 48.51 73
8 08/20/2017 14:05:09 75.00,-155.09 86.54 08/20/2017 14:05:08 74.99,-155.18 86.57 2.86 1
9 08/20/2017 14:53:01 -79.35, 30.29 98.88 08/20/2017 14:54:15 -79.19, 30.94 99.00 22.71 74
10 08/23/2017 05:32:25 -74.35, 151.52 91.91 08/23/2017 05:31:35 -74.35, 151.52 91.87 0.11 50
11 08/23/2017 06:21:26 75.58, -37.62 86.72 08/23/2017 06:21:53 75.58, -37.66 86.71 1.18 27




NCC Satellite Simultaneous Nadir Overpasses (SNOs) Prediction Service
